Weather History for Atwater, CA

Change the Weather History Date:

Sunday, December 1, 2013

  Actual Average (KMCE) Record (KMCE)
Temperature  
Mean Temperature 52 °F 47 °F  
Max Temperature 68 °F 57 °F 71 °F (2014)
Min Temperature 35 °F 37 °F 27 °F (2007)
Degree Days  
Heating Degree Days 14    
Month to date heating degree days  
Since 1 July heating degree days  
Cooling Degree Days 0    
Month to date cooling degree days  
Year to date cooling degree days  
Growing Degree Days 2 (Base 50)    
Moisture  
Dew Point 42 °F    
Average Humidity 92    
Maximum Humidity 100    
Minimum Humidity 43    
Precipitation  
Precipitation 0.00 in 0.02 in 0.37 in (2005)
Month to date precipitation 0.02  
Year to date precipitation 11.00  
Since 1 July precipitation 2.32  
Snow  
Snow 0.00 in - - ()
Month to date snowfall  
Since 1 July snowfall  
Snow Depth -    
Sea Level Pressure  
Sea Level Pressure 30.27 in    
Wind  
Wind Speed 1 mph (SE)    
Max Wind Speed 6 mph    
Max Gust Speed -    
Visibility 5 miles    
Events      
T = Trace of Precipitation, MM = Missing Value Source: NWS Daily Summary

Daily Weather History Graph

Daily Weather History Graph

Search for Another Location

Airport:

Trip Planner

Search our weather history database for the weather conditions in past years. The results will help you decide how hot, cold, wet, or windy it might be!

Date:

Astronomy

Dec. 01, 2013 Rise Set
Actual Time 6:58 AM PST 4:44 PM PST
Civil Twilight 6:29 AM PST 5:13 PM PST
Nautical Twilight 5:57 AM PST 5:45 PM PST
Astronomical Twilight 5:25 AM PST 6:17 PM PST
Moon 5:23 AM PST (12/1) 3:57 PM PST (12/1)
Length of Visible Light 10h 43m
Length of Day
9h 46m
Waning Crescent, 2% of the Moon is Illuminated
Dec 1
Waning Crescent
Dec 2
New
Dec 9
First Quarter
Dec 17
Full
Dec 25
Last Quarter

Hourly Weather History & Observations

Time (PST) Temp. Windchill Dew Point Humidity Pressure Visibility Wind Dir Wind Speed Gust Speed Precip Events Conditions
12:15 AM 41.0 °F - 41.0 °F 100% 30.27 in 5.0 mi Calm Calm - N/A   Clear
12:35 AM 39.2 °F - 39.2 °F 100% 30.26 in 5.0 mi Calm Calm - N/A   Clear
12:55 AM 39.2 °F - 39.2 °F 100% 30.26 in 5.0 mi Calm Calm - N/A   Clear
1:15 AM 39.2 °F - 39.2 °F 100% 30.27 in 5.0 mi Calm Calm - N/A   Clear
1:35 AM 41.0 °F - 41.0 °F 100% 30.27 in 7.0 mi Calm Calm - N/A   Clear
1:55 AM 39.2 °F - 39.2 °F 100% 30.27 in 5.0 mi Calm Calm - N/A   Clear
2:15 AM 37.4 °F - 37.4 °F 100% 30.28 in 3.0 mi Calm Calm - N/A   Clear
2:35 AM 37.4 °F - 37.4 °F 100% 30.28 in 2.0 mi Calm Calm - N/A   Clear
2:55 AM 39.2 °F - 39.2 °F 100% 30.28 in 5.0 mi Calm Calm - N/A   Clear
3:15 AM 37.4 °F - 37.4 °F 100% 30.28 in 4.0 mi Calm Calm - N/A   Clear
3:35 AM 37.4 °F - 37.4 °F 100% 30.28 in 2.5 mi Calm Calm - N/A   Clear
3:55 AM 37.4 °F - 37.4 °F 100% 30.27 in 2.5 mi Calm Calm - N/A   Clear
4:15 AM 37.4 °F - 37.4 °F 100% 30.27 in 3.0 mi Calm Calm - N/A   Clear
4:35 AM 37.4 °F - 37.4 °F 100% 30.27 in 2.0 mi Calm Calm - N/A   Clear
4:55 AM 37.4 °F - 37.4 °F 100% 30.28 in 2.5 mi Calm Calm - N/A   Clear
5:15 AM 37.4 °F 34.9 °F 37.4 °F 100% 30.29 in 3.0 mi South 3.5 mph - N/A   Clear
5:35 AM 37.4 °F - 37.4 °F 100% 30.30 in 3.0 mi Calm Calm - N/A   Clear
5:55 AM 35.6 °F - 35.6 °F 100% 30.30 in 3.0 mi Calm Calm - N/A   Clear
6:45 AM 35.6 °F 32.8 °F 35.6 °F 100% 30.32 in 2.0 mi ESE 3.5 mph - N/A   Haze
7:45 AM 39.2 °F 35.0 °F 39.2 °F 100% 30.34 in 3.0 mi ESE 5.8 mph - N/A   Haze
8:45 AM 46.4 °F 44.3 °F 46.4 °F 100% 30.35 in 3.0 mi SSE 4.6 mph - N/A   Haze
9:45 AM 53.6 °F - 53.6 °F 100% 30.36 in 3.0 mi Variable 4.6 mph - N/A   Haze
10:45 AM 60.8 °F - 50.0 °F 68% 30.35 in 3.0 mi Calm Calm - N/A   Haze
11:45 AM 62.6 °F - 48.2 °F 59% 30.31 in 4.0 mi Calm Calm - N/A   Haze
12:45 PM 66.2 °F - 46.4 °F 49% 30.29 in 4.0 mi Calm Calm - N/A   Haze
1:45 PM 68.0 °F - 44.6 °F 43% 30.27 in 5.0 mi Calm Calm - N/A   Haze
2:45 PM 68.0 °F - 44.6 °F 43% 30.25 in 7.0 mi Variable 4.6 mph - N/A   Clear
3:45 PM 66.2 °F - 44.6 °F 46% 30.23 in 7.0 mi Variable 4.6 mph - N/A   Clear
4:45 PM 60.8 °F - 46.4 °F 59% 30.23 in 7.0 mi Variable 4.6 mph - N/A   Clear
5:45 PM 55.4 °F - 50.0 °F 82% 30.23 in 10.0 mi Calm Calm - N/A   Clear
6:45 PM 48.2 °F - 48.2 °F 100% 30.24 in 10.0 mi Calm Calm - N/A   Clear
7:45 PM 46.4 °F - 46.4 °F 100% 30.25 in 10.0 mi Calm Calm - N/A   Clear
8:15 PM 46.4 °F - 46.4 °F 100% 30.25 in 5.0 mi Calm Calm - N/A   Clear
8:35 PM 44.6 °F 42.2 °F 44.6 °F 100% 30.25 in 6.0 mi SE 4.6 mph - N/A   Clear
8:45 PM 44.6 °F 42.2 °F 44.6 °F 100% 30.25 in 7.0 mi Variable 4.6 mph - N/A   Clear
8:55 PM 44.6 °F 43.1 °F 44.6 °F 100% 30.26 in 7.0 mi ESE 3.5 mph - N/A   Clear
9:15 PM 44.6 °F 43.1 °F 44.6 °F 100% 30.26 in 8.0 mi SE 3.5 mph - N/A   Clear
9:35 PM 44.6 °F - 44.6 °F 100% 30.26 in 9.0 mi Calm Calm - N/A   Clear
9:55 PM 44.6 °F - 44.6 °F 100% 30.26 in 9.0 mi Calm Calm - N/A   Clear
10:15 PM 44.6 °F - 44.6 °F 100% 30.26 in 10.0 mi Calm Calm - N/A   Clear
10:35 PM 44.6 °F - 44.6 °F 100% 30.26 in 8.0 mi Calm Calm - N/A   Clear
10:55 PM 42.8 °F - 42.8 °F 100% 30.27 in 8.0 mi Calm Calm - N/A   Clear
11:15 PM 42.8 °F 41.1 °F 42.8 °F 100% 30.26 in 7.0 mi South 3.5 mph - N/A   Clear
11:35 PM 41.0 °F - 41.0 °F 100% 30.26 in 7.0 mi Calm Calm - N/A   Clear
11:55 PM 41.0 °F - 41.0 °F 100% 30.26 in 6.0 mi Calm Calm - N/A   Clear